Location: Newark
(52.2090°N, 4.1550°W)
Time: 16:15:16
(UTC+00:00)

Explorer 7 - Pass Details

Date: 22 September 2019
Orbit: 485 x 680 km, 50.3° (Epoch: 14 October)

Event Time Altitude Azimuth Distance (km) Brightness Sun altitude
Rises 00:16:00 0° 252° (WSW) 2,864 - -37.3°
Reaches altitude 10° 00:18:15 10° 249° (WSW) 1,992 - -37.3°
Maximum altitude 00:22:49 64° 168° (SSE) 719 - -37.2°
Drops below altitude 10° 00:27:36 10° 88° (E) 2,091 - -37.2°
Sets 00:30:00 0° 86° (E) 3,021 - -37.1°
